| time (UTC) | temp C | wind direction | speed KPH | gust KPH | rain 1hr cm | rain 24hr cm | rain mn cm | humidity % | barometer mb |
| 20260906130556 | 21 | 19 | 1.6 | 3.2 | 0.00 | 0.00 | 0.00 | 97 | 1016.2 |
| 20260906130051 | 21 | 25 | 1.6 | 3.2 | 0.00 | 0.00 | 0.00 | 98 | 1016.4 |
| 20260906125548 | 20 | 27 | 1.6 | 3.2 | 0.00 | 0.00 | 0.00 | 99 | 1016.1 |
| 20260906125043 | 20 | 39 | 0.0 | 1.6 | 0.00 | 0.00 | 0.00 | 99 | 1016.2 |
| 20260906124538 | 20 | 25 | 3.2 | 3.2 | 0.00 | 0.00 | 0.00 | 99 | 1016.0 |
| 20260906124033 | 20 | 27 | 0.0 | 0.0 | 0.00 | 0.00 | 0.00 | 99 | 1015.8 |
| 20260906123532 | 20 | 31 | 0.0 | 1.6 | 0.00 | 0.00 | 0.00 | 99 | 1016.1 |
| 20260906123027 | 20 | 27 | 0.0 | 0.0 | 0.00 | 0.00 | 0.00 | 99 | 1016.2 |
| 20260906122521 | 20 | 26 | 0.0 | 1.6 | 0.00 | 0.00 | 0.00 | 99 | 1016.1 |
| 20260906122018 | 20 | 26 | 1.6 | 1.6 | 0.00 | 0.00 | 0.00 | 99 | 1016.0 |
| 20260906121514 | 19 | 27 | 0.0 | 0.0 | 0.00 | 0.00 | 0.00 | 99 | 1015.7 |
| 20260906121009 | 19 | 27 | 0.0 | 1.6 | 0.00 | 0.00 | 0.00 | 99 | 1015.5 |
| 20260906120504 | 19 | 26 | 0.0 | 0.0 | 0.00 | 0.00 | 0.00 | 99 | 1015.7 |
| 20260906120002 | 19 | 27 | 0.0 | 0.0 | 0.00 | 0.00 | 0.00 | 99 | 1015.4 |
| 20260906115456 | 19 | 27 | 0.0 | 0.0 | 0.00 | 0.00 | 0.00 | 99 | 1015.4 |
| 20260906114956 | 19 | 28 | 0.0 | 1.6 | 0.00 | 0.00 | 0.00 | 99 | 1015.4 |
| 20260906114450 | 19 | 29 | 0.0 | 0.0 | 0.00 | 0.00 | 0.00 | 99 | 1015.2 |
| 20260906113947 | 19 | 28 | 0.0 | 0.0 | 0.00 | 0.00 | 0.00 | 99 | 1015.4 |
| 20260906113445 | 19 | 27 | 0.0 | 0.0 | 0.00 | 0.00 | 0.00 | 99 | 1015.1 |
| 20260906112941 | 19 | 28 | 0.0 | 0.0 | 0.00 | 0.00 | 0.00 | 99 | 1015.1 |
| 20260906112436 | 19 | 28 | 0.0 | 0.0 | 0.00 | 0.00 | 0.00 | 99 | 1014.9 |
| 20260906111932 | 19 | 29 | 0.0 | 0.0 | 0.00 | 0.00 | 0.00 | 99 | 1014.9 |
| 20260906111431 | 19 | 114 | 0.0 | 0.0 | 0.00 | 0.00 | 0.00 | 99 | 1014.9 |
| 20260906110926 | 19 | 149 | 0.0 | 0.0 | 0.00 | 0.00 | 0.00 | 99 | 1014.9 |
| 20260906110422 | 19 | 147 | 0.0 | 0.0 | 0.00 | 0.00 | 0.00 | 99 | 1014.9 |
| 20260906105921 | 19 | 148 | 0.0 | 0.0 | 0.00 | 0.00 | 0.00 | 99 | 1014.9 |
| 20260906105417 | 19 | 146 | 0.0 | 0.0 | 0.00 | 0.00 | 0.00 | 99 | 1014.6 |
| 20260906104912 | 19 | 149 | 0.0 | 0.0 | 0.00 | 0.00 | 0.00 | 99 | 1015.0 |
| 20260906104411 | 19 | 149 | 0.0 | 0.0 | 0.00 | 0.00 | 0.00 | 99 | 1014.7 |
| 20260906103910 | 19 | 147 | 0.0 | 0.0 | 0.00 | 0.00 | 0.00 | 99 | 1014.5 |
| 20260906103408 | 19 | 149 | 0.0 | 0.0 | 0.00 | 0.00 | 0.00 | 99 | 1014.2 |
| 20260906102904 | 19 | 150 | 0.0 | 0.0 | 0.00 | 0.00 | 0.00 | 99 | 1014.5 |
| 20260906102403 | 19 | 148 | 0.0 | 0.0 | 0.00 | 0.00 | 0.00 | 99 | 1014.5 |
| 20260906101858 | 19 | 150 | 0.0 | 0.0 | 0.00 | 0.00 | 0.00 | 99 | 1014.5 |
| 20260906101353 | 19 | 147 | 0.0 | 0.0 | 0.00 | 0.00 | 0.00 | 99 | 1014.5 |
| 20260906100849 | 19 | 147 | 0.0 | 0.0 | 0.00 | 0.00 | 0.00 | 99 | 1014.5 |
| 20260906100348 | 19 | 149 | 0.0 | 0.0 | 0.00 | 0.00 | 0.00 | 99 | 1014.5 |
| 20260906095843 | 19 | 149 | 0.0 | 0.0 | 0.00 | 0.00 | 0.00 | 99 | 1014.5 |
| 20260906095339 | 19 | 147 | 0.0 | 0.0 | 0.00 | 0.00 | 0.00 | 99 | 1014.3 |
| 20260906094838 | 19 | 149 | 0.0 | 0.0 | 0.00 | 0.00 | 0.00 | 99 | 1014.2 |
| 20260906094333 | 19 | 148 | 0.0 | 0.0 | 0.00 | 0.00 | 0.00 | 99 | 1014.3 |
| 20260906093829 | 18 | 147 | 0.0 | 0.0 | 0.00 | 0.00 | 0.00 | 99 | 1014.1 |
| 20260906093325 | 18 | 147 | 0.0 | 0.0 | 0.00 | 0.00 | 0.00 | 99 | 1014.5 |
| 20260906092819 | 18 | 145 | 0.0 | 0.0 | 0.00 | 0.00 | 0.00 | 99 | 1014.4 |
| 20260906092314 | 18 | 146 | 0.0 | 0.0 | 0.00 | 0.00 | 0.00 | 99 | 1014.3 |
| 20260906091809 | 18 | 143 | 0.0 | 0.0 | 0.00 | 0.00 | 0.00 | 99 | 1014.1 |
| 20260906091306 | 18 | 147 | 0.0 | 0.0 | 0.00 | 0.00 | 0.00 | 99 | 1014.1 |
| 20260906090802 | 19 | 149 | 0.0 | 0.0 | 0.00 | 0.00 | 0.00 | 99 | 1014.3 |
| 20260906090301 | 19 | 147 | 0.0 | 0.0 | 0.00 | 0.00 | 0.00 | 99 | 1014.3 |
| 20260906085801 | 19 | 152 | 0.0 | 0.0 | 0.00 | 0.00 | 0.00 | 99 | 1014.2 |
| 20260906085259 | 19 | 173 | 0.0 | 0.0 | 0.00 | 0.00 | 0.00 | 99 | 1014.2 |
| 20260906084754 | 19 | 146 | 0.0 | 0.0 | 0.00 | 0.00 | 0.00 | 99 | 1014.0 |
| 20260906084248 | 19 | 147 | 0.0 | 0.0 | 0.00 | 0.00 | 0.00 | 99 | 1014.0 |
| 20260906083743 | 19 | 147 | 0.0 | 0.0 | 0.00 | 0.00 | 0.00 | 99 | 1014.1 |
| 20260906083239 | 19 | 147 | 0.0 | 0.0 | 0.00 | 0.00 | 0.00 | 99 | 1014.1 |
| 20260906082734 | 19 | 147 | 0.0 | 0.0 | 0.00 | 0.00 | 0.00 | 99 | 1014.2 |
| 20260906082229 | 19 | 147 | 0.0 | 0.0 | 0.00 | 0.00 | 0.00 | 99 | 1014.1 |
| 20260906081725 | 20 | 172 | 0.0 | 0.0 | 0.00 | 0.00 | 0.00 | 99 | 1014.2 |
| 20260906081220 | 20 | 147 | 0.0 | 0.0 | 0.00 | 0.00 | 0.00 | 99 | 1014.3 |
| 20260906080716 | 20 | 147 | 0.0 | 0.0 | 0.00 | 0.00 | 0.00 | 99 | 1014.1 |
| 20260906080212 | 20 | 149 | 0.0 | 0.0 | 0.00 | 0.00 | 0.00 | 99 | 1014.2 |
| 20260906075706 | 20 | 147 | 0.0 | 0.0 | 0.00 | 0.00 | 0.00 | 99 | 1014.3 |
| 20260906075201 | 20 | 147 | 0.0 | 0.0 | 0.00 | 0.00 | 0.00 | 99 | 1014.4 |
| 20260906074656 | 20 | 147 | 0.0 | 0.0 | 0.00 | 0.00 | 0.00 | 99 | 1014.2 |
| 20260906074155 | 20 | 147 | 0.0 | 0.0 | 0.00 | 0.00 | 0.00 | 99 | 1014.5 |
| 20260906073650 | 20 | 148 | 0.0 | 0.0 | 0.00 | 0.00 | 0.00 | 99 | 1014.3 |
| 20260906073145 | 20 | 148 | 0.0 | 0.0 | 0.00 | 0.00 | 0.00 | 98 | 1014.4 |
| 20260906072641 | 20 | 147 | 0.0 | 0.0 | 0.00 | 0.00 | 0.00 | 98 | 1014.3 |
| 20260906072136 | 20 | 147 | 0.0 | 0.0 | 0.00 | 0.00 | 0.00 | 98 | 1014.5 |
| 20260906071633 | 20 | 147 | 0.0 | 0.0 | 0.00 | 0.00 | 0.00 | 98 | 1014.4 |
| 20260906071132 | 20 | 147 | 0.0 | 0.0 | 0.00 | 0.00 | 0.00 | 98 | 1014.5 |
| 20260906070629 | 20 | 147 | 0.0 | 0.0 | 0.00 | 0.00 | 0.00 | 98 | 1014.6 |
| 20260906070125 | 20 | 147 | 0.0 | 0.0 | 0.00 | 0.00 | 0.00 | 98 | 1014.4 |
| 20260906065624 | 20 | 152 | 0.0 | 0.0 | 0.00 | 0.00 | 0.00 | 98 | 1014.5 |
| 20260906065120 | 20 | 149 | 0.0 | 0.0 | 0.00 | 0.00 | 0.00 | 97 | 1014.8 |
| 20260906064615 | 20 | 147 | 0.0 | 0.0 | 0.00 | 0.00 | 0.00 | 97 | 1014.5 |
| 20260906064110 | 20 | 147 | 0.0 | 0.0 | 0.00 | 0.00 | 0.00 | 97 | 1014.4 |
| 20260906063605 | 20 | 146 | 0.0 | 0.0 | 0.00 | 0.00 | 0.00 | 96 | 1014.3 |
| 20260906063101 | 21 | 147 | 0.0 | 0.0 | 0.00 | 0.00 | 0.00 | 96 | 1014.3 |
| 20260906062556 | 21 | 147 | 0.0 | 0.0 | 0.00 | 0.00 | 0.00 | 95 | 1014.3 |
| 20260906062055 | 21 | 150 | 0.0 | 0.0 | 0.00 | 0.00 | 0.00 | 95 | 1014.3 |
| 20260906061552 | 21 | 146 | 0.0 | 0.0 | 0.00 | 0.00 | 0.00 | 95 | 1014.4 |
| 20260906061051 | 21 | 148 | 0.0 | 0.0 | 0.00 | 0.00 | 0.00 | 94 | 1014.5 |
| 20260906060548 | 21 | 147 | 0.0 | 1.6 | 0.00 | 0.00 | 0.00 | 94 | 1014.7 |
| 20260906060044 | 21 | 147 | 1.6 | 1.6 | 0.00 | 0.00 | 0.00 | 94 | 1014.4 |
| 20260906055540 | 21 | 149 | 1.6 | 1.6 | 0.00 | 0.00 | 0.00 | 94 | 1014.3 |
| 20260906055035 | 21 | 147 | 0.0 | 1.6 | 0.00 | 0.00 | 0.00 | 94 | 1014.3 |
| 20260906054530 | 21 | 147 | 1.6 | 3.2 | 0.00 | 0.00 | 0.00 | 93 | 1014.2 |
| 20260906054025 | 21 | 147 | 1.6 | 1.6 | 0.00 | 0.00 | 0.00 | 93 | 1014.3 |
| 20260906053522 | 21 | 147 | 0.0 | 1.6 | 0.00 | 0.00 | 0.00 | 93 | 1014.0 |
| 20260906053017 | 21 | 147 | 0.0 | 4.8 | 0.00 | 0.00 | 0.00 | 93 | 1014.2 |
| 20260906052513 | 21 | 147 | 0.0 | 3.2 | 0.00 | 0.00 | 0.00 | 93 | 1014.2 |
| 20260906052010 | 22 | 147 | 0.0 | 1.6 | 0.00 | 0.00 | 0.00 | 92 | 1014.0 |
| 20260906051505 | 22 | 140 | 1.6 | 1.6 | 0.00 | 0.00 | 0.00 | 93 | 1014.0 |
| 20260906051000 | 21 | 148 | 0.0 | 3.2 | 0.00 | 0.00 | 0.00 | 93 | 1014.1 |
| 20260906050500 | 21 | 147 | 3.2 | 3.2 | 0.00 | 0.00 | 0.00 | 93 | 1014.2 |
| 20260906045954 | 21 | 147 | 0.0 | 3.2 | 0.00 | 0.03 | 0.03 | 93 | 1013.9 |
| 20260906045453 | 22 | 150 | 3.2 | 4.8 | 0.00 | 0.03 | 0.03 | 93 | 1014.0 |
| 20260906044949 | 22 | 148 | 1.6 | 3.2 | 0.00 | 0.03 | 0.03 | 93 | 1013.9 |
| 20260906044444 | 22 | 149 | 1.6 | 1.6 | 0.00 | 0.03 | 0.03 | 92 | 1013.9 |
| 20260906043940 | 22 | 147 | 1.6 | 3.2 | 0.00 | 0.03 | 0.03 | 92 | 1013.7 |
| 20260906043435 | 22 | 147 | 1.6 | 3.2 | 0.00 | 0.03 | 0.03 | 92 | 1013.9 |
| 20260906042931 | 22 | 150 | 1.6 | 1.6 | 0.00 | 0.03 | 0.03 | 92 | 1013.7 |
| 20260906042430 | 22 | 149 | 0.0 | 3.2 | 0.00 | 0.03 | 0.03 | 92 | 1013.6 |
| 20260906041925 | 22 | 150 | 1.6 | 3.2 | 0.00 | 0.03 | 0.03 | 92 | 1013.8 |
| 20260906041421 | 22 | 147 | 0.0 | 1.6 | 0.00 | 0.03 | 0.03 | 92 | 1013.7 |
| 20260906040920 | 22 | 149 | 0.0 | 3.2 | 0.00 | 0.03 | 0.03 | 92 | 1013.7 |
| 20260906040416 | 22 | 145 | 0.0 | 3.2 | 0.00 | 0.03 | 0.03 | 92 | 1013.3 |
| 20260906035911 | 22 | 148 | 1.6 | 1.6 | 0.00 | 0.03 | 0.03 | 92 | 1013.5 |
| 20260906035406 | 22 | 148 | 0.0 | 1.6 | 0.00 | 0.03 | 0.03 | 91 | 1013.4 |
| 20260906034901 | 22 | 154 | 1.6 | 4.8 | 0.00 | 0.03 | 0.03 | 91 | 1013.4 |
| 20260906034356 | 22 | 148 | 1.6 | 3.2 | 0.00 | 0.03 | 0.03 | 91 | 1013.4 |
| 20260906033852 | 22 | 147 | 3.2 | 4.8 | 0.00 | 0.03 | 0.03 | 91 | 1013.3 |
| 20260906033351 | 22 | 147 | 1.6 | 4.8 | 0.00 | 0.03 | 0.03 | 90 | 1013.3 |
| 20260906032848 | 22 | 140 | 11.3 | 12.9 | 0.00 | 0.03 | 0.03 | 90 | 1013.3 |
| 20260906032343 | 22 | 145 | 3.2 | 8.0 | 0.00 | 0.03 | 0.03 | 90 | 1013.1 |
| 20260906031838 | 22 | 153 | 4.8 | 8.0 | 0.00 | 0.03 | 0.03 | 89 | 1013.1 |
| 20260906031333 | 22 | 149 | 1.6 | 3.2 | 0.00 | 0.03 | 0.03 | 89 | 1013.2 |
| 20260906030833 | 22 | 151 | 0.0 | 3.2 | 0.00 | 0.03 | 0.03 | 89 | 1013.3 |
| 20260906030329 | 22 | 147 | 3.2 | 4.8 | 0.00 | 0.03 | 0.03 | 89 | 1013.2 |
| 20260906025823 | 22 | 149 | 4.8 | 4.8 | 0.00 | 0.03 | 0.03 | 89 | 1013.2 |
| 20260906025317 | 22 | 152 | 4.8 | 12.9 | 0.00 | 0.03 | 0.03 | 89 | 1013.0 |
| 20260906024816 | 22 | 147 | 1.6 | 11.3 | 0.00 | 0.03 | 0.03 | 89 | 1013.4 |
| 20260906024315 | 22 | 145 | 6.4 | 11.3 | 0.00 | 0.03 | 0.03 | 89 | 1013.3 |
| 20260906023811 | 22 | 151 | 1.6 | 9.7 | 0.00 | 0.03 | 0.03 | 89 | 1013.3 |
| 20260906023306 | 22 | 143 | 3.2 | 9.7 | 0.00 | 0.03 | 0.03 | 89 | 1013.4 |
| 20260906022802 | 22 | 149 | 6.4 | 8.0 | 0.00 | 0.03 | 0.03 | 89 | 1013.4 |
| 20260906022257 | 22 | 186 | 4.8 | 8.0 | 0.00 | 0.03 | 0.03 | 89 | 1013.1 |
| 20260906021753 | 22 | 133 | 4.8 | 8.0 | 0.00 | 0.03 | 0.03 | 89 | 1013.2 |
| 20260906021252 | 22 | 149 | 3.2 | 3.2 | 0.00 | 0.03 | 0.03 | 89 | 1013.2 |
| 20260906020747 | 22 | 152 | 1.6 | 9.7 | 0.00 | 0.03 | 0.03 | 89 | 1012.8 |
| 20260906020247 | 22 | 142 | 3.2 | 11.3 | 0.00 | 0.03 | 0.03 | 89 | 1013.0 |
| 20260906015741 | 22 | 150 | 8.0 | 11.3 | 0.00 | 0.03 | 0.03 | 89 | 1013.3 |
| 20260906015239 | 22 | 141 | 3.2 | 4.8 | 0.00 | 0.03 | 0.03 | 90 | 1013.3 |
| 20260906014734 | 22 | 147 | 3.2 | 4.8 | 0.00 | 0.03 | 0.03 | 91 | 1013.5 |
| 20260906014230 | 22 | 152 | 1.6 | 4.8 | 0.00 | 0.03 | 0.03 | 91 | 1013.1 |
| 20260906013726 | 22 | 145 | 1.6 | 4.8 | 0.00 | 0.03 | 0.03 | 91 | 1013.2 |
| 20260906013226 | 22 | 135 | 4.8 | 9.7 | 0.00 | 0.03 | 0.03 | 90 | 1013.2 |
| 20260906012721 | 22 | 149 | 4.8 | 8.0 | 0.00 | 0.03 | 0.03 | 90 | 1013.6 |
| 20260906012216 | 22 | 150 | 3.2 | 12.9 | 0.00 | 0.03 | 0.03 | 89 | 1013.3 |
| 20260906011711 | 22 | 147 | 0.0 | 3.2 | 0.00 | 0.03 | 0.03 | 89 | 1013.1 |
| 20260906011206 | 22 | 149 | 3.2 | 4.8 | 0.00 | 0.03 | 0.03 | 89 | 1013.3 |
| 20260906010701 | 22 | 148 | 3.2 | 8.0 | 0.00 | 0.03 | 0.03 | 88 | 1013.1 |
| 20260906010158 | 22 | 148 | 8.0 | 12.9 | 0.00 | 0.03 | 0.03 | 88 | 1013.2 |
| 20260906005657 | 22 | 145 | 1.6 | 8.0 | 0.00 | 0.03 | 0.03 | 88 | 1013.0 |
| 20260906005156 | 22 | 147 | 1.6 | 4.8 | 0.00 | 0.03 | 0.03 | 89 | 1013.2 |
| 20260906004655 | 22 | 149 | 1.6 | 8.0 | 0.00 | 0.03 | 0.03 | 89 | 1013.2 |
| 20260906004151 | 22 | 133 | 4.8 | 4.8 | 0.00 | 0.03 | 0.03 | 89 | 1013.2 |
| 20260906003646 | 22 | 149 | 4.8 | 4.8 | 0.00 | 0.03 | 0.03 | 90 | 1013.2 |
| 20260906003142 | 22 | 147 | 3.2 | 4.8 | 0.00 | 0.03 | 0.03 | 90 | 1013.1 |
| 20260906002636 | 22 | 145 | 4.8 | 8.0 | 0.00 | 0.03 | 0.03 | 90 | 1012.9 |
| 20260906002131 | 22 | 145 | 4.8 | 4.8 | 0.00 | 0.03 | 0.03 | 90 | 1012.8 |
| 20260906001626 | 22 | 145 | 3.2 | 12.9 | 0.00 | 0.03 | 0.03 | 90 | 1012.8 |
| 20260906001126 | 22 | 145 | 4.8 | 8.0 | 0.00 | 0.03 | 0.03 | 90 | 1012.7 |
| 20260906000622 | 22 | 131 | 6.4 | 16.1 | 0.00 | 0.03 | 0.03 | 89 | 1012.6 |
| 20260906000118 | 23 | 144 | 1.6 | 4.8 | 0.00 | 0.03 | 0.03 | 89 | 1012.4 |
| 20260905235616 | 23 | 143 | 4.8 | 4.8 | 0.00 | 0.03 | 0.03 | 88 | 1012.2 |
| 20260905235111 | 23 | 147 | 3.2 | 8.0 | 0.00 | 0.03 | 0.03 | 87 | 1012.3 |
| 20260905234607 | 23 | 145 | 4.8 | 8.0 | 0.00 | 0.03 | 0.03 | 86 | 1012.4 |
| 20260905234102 | 24 | 147 | 4.8 | 8.0 | 0.00 | 0.03 | 0.03 | 86 | 1012.6 |
| 20260905233602 | 24 | 143 | 1.6 | 3.2 | 0.00 | 0.03 | 0.03 | 85 | 1012.3 |
| 20260905233056 | 25 | 141 | 4.8 | 14.5 | 0.00 | 0.03 | 0.03 | 84 | 1012.1 |
| 20260905232552 | 25 | 143 | 8.0 | 9.7 | 0.00 | 0.03 | 0.03 | 84 | 1012.1 |
| 20260905232048 | 25 | 145 | 4.8 | 8.0 | 0.00 | 0.03 | 0.03 | 84 | 1012.1 |
| 20260905231543 | 25 | 147 | 4.8 | 11.3 | 0.00 | 0.03 | 0.03 | 84 | 1012.3 |
| 20260905231039 | 25 | 143 | 4.8 | 4.8 | 0.00 | 0.03 | 0.03 | 84 | 1011.9 |
| 20260905230538 | 25 | 147 | 1.6 | 3.2 | 0.00 | 0.03 | 0.03 | 84 | 1011.9 |
| 20260905230037 | 25 | 143 | 1.6 | 3.2 | 0.00 | 0.03 | 0.03 | 83 | 1012.1 |
| 20260905225531 | 26 | 147 | 1.6 | 4.8 | 0.00 | 0.03 | 0.03 | 82 | 1011.8 |
| 20260905225027 | 26 | 148 | 1.6 | 14.5 | 0.00 | 0.03 | 0.03 | 81 | 1011.6 |
| 20260905224521 | 26 | 149 | 4.8 | 11.3 | 0.00 | 0.03 | 0.03 | 80 | 1011.5 |
| 20260905224021 | 27 | 149 | 4.8 | 4.8 | 0.00 | 0.03 | 0.03 | 79 | 1011.5 |
| 20260905223518 | 27 | 143 | 4.8 | 9.7 | 0.00 | 0.03 | 0.03 | 78 | 1011.4 |
| 20260905223014 | 27 | 147 | 3.2 | 8.0 | 0.00 | 0.03 | 0.03 | 78 | 1011.5 |
| 20260905222514 | 27 | 147 | 0.0 | 4.8 | 0.00 | 0.03 | 0.03 | 78 | 1011.5 |
| 20260905222009 | 27 | 145 | 4.8 | 8.0 | 0.00 | 0.03 | 0.03 | 76 | 1011.4 |
| 20260905221506 | 28 | 148 | 3.2 | 4.8 | 0.00 | 0.03 | 0.03 | 73 | 1011.3 |
| 20260905221001 | 28 | 147 | 3.2 | 8.0 | 0.00 | 0.03 | 0.03 | 73 | 1011.3 |
| 20260905220457 | 28 | 147 | 1.6 | 8.0 | 0.00 | 0.03 | 0.03 | 74 | 1011.3 |
| 20260905215956 | 28 | 137 | 4.8 | 8.0 | 0.00 | 0.03 | 0.03 | 73 | 1011.6 |
| 20260905215452 | 27 | 147 | 0.0 | 1.6 | 0.00 | 0.03 | 0.03 | 76 | 1011.7 |
| 20260905214948 | 27 | 147 | 1.6 | 1.6 | 0.00 | 0.03 | 0.03 | 77 | 1011.8 |
| 20260905214444 | 27 | 150 | 1.6 | 4.8 | 0.00 | 0.03 | 0.03 | 75 | 1011.6 |
| 20260905213944 | 28 | 147 | 1.6 | 9.7 | 0.00 | 0.03 | 0.03 | 75 | 1011.6 |
| 20260905213440 | 28 | 142 | 1.6 | 3.2 | 0.00 | 0.03 | 0.03 | 75 | 1011.5 |
| 20260905212935 | 28 | 150 | 1.6 | 4.8 | 0.00 | 0.03 | 0.03 | 74 | 1011.4 |
| 20260905212430 | 28 | 147 | 0.0 | 8.0 | 0.00 | 0.03 | 0.03 | 74 | 1011.4 |
| 20260905211929 | 29 | 147 | 0.0 | 3.2 | 0.00 | 0.03 | 0.03 | 73 | 1011.5 |
| 20260905211425 | 29 | 147 | 0.0 | 1.6 | 0.00 | 0.03 | 0.03 | 72 | 1011.5 |
| 20260905210921 | 29 | 147 | 1.6 | 3.2 | 0.00 | 0.03 | 0.03 | 74 | 1011.5 |
| 20260905210421 | 28 | 147 | 1.6 | 1.6 | 0.00 | 0.03 | 0.03 | 73 | 1011.7 |
| 20260905205920 | 28 | 147 | 0.0 | 0.0 | 0.00 | 0.03 | 0.03 | 74 | 1011.5 |
| 20260905205415 | 28 | 149 | 1.6 | 3.2 | 0.00 | 0.03 | 0.03 | 74 | 1011.8 |
| 20260905204914 | 28 | 148 | 3.2 | 4.8 | 0.00 | 0.03 | 0.03 | 76 | 1011.7 |
| 20260905204410 | 28 | 147 | 0.0 | 1.6 | 0.00 | 0.03 | 0.03 | 78 | 1011.5 |
| 20260905203909 | 27 | 147 | 1.6 | 4.8 | 0.00 | 0.03 | 0.03 | 79 | 1011.9 |
| 20260905203405 | 27 | 147 | 0.0 | 3.2 | 0.00 | 0.03 | 0.03 | 81 | 1011.9 |
| 20260905202900 | 27 | 160 | 3.2 | 8.0 | 0.00 | 0.03 | 0.03 | 80 | 1011.8 |
| 20260905202355 | 27 | 149 | 1.6 | 8.0 | 0.00 | 0.03 | 0.03 | 80 | 1012.1 |
| 20260905201850 | 26 | 146 | 1.6 | 3.2 | 0.00 | 0.03 | 0.03 | 83 | 1011.8 |
| 20260905201346 | 26 | 141 | 1.6 | 3.2 | 0.00 | 0.03 | 0.03 | 82 | 1011.7 |
| 20260905200840 | 26 | 147 | 0.0 | 4.8 | 0.00 | 0.03 | 0.03 | 82 | 1011.9 |
| 20260905200336 | 26 | 147 | 1.6 | 3.2 | 0.00 | 0.03 | 0.03 | 82 | 1011.9 |
| 20260905195834 | 26 | 142 | 3.2 | 4.8 | 0.00 | 0.03 | 0.03 | 83 | 1011.9 |
| 20260905195329 | 26 | 147 | 1.6 | 4.8 | 0.00 | 0.03 | 0.03 | 83 | 1011.8 |
| 20260905194825 | 26 | 145 | 4.8 | 8.0 | 0.00 | 0.03 | 0.03 | 83 | 1012.1 |
| 20260905194325 | 26 | 149 | 3.2 | 3.2 | 0.00 | 0.03 | 0.03 | 84 | 1011.9 |
| 20260905193824 | 26 | 146 | 3.2 | 4.8 | 0.00 | 0.03 | 0.03 | 83 | 1011.9 |
| 20260905193319 | 26 | 129 | 6.4 | 9.7 | 0.00 | 0.03 | 0.03 | 83 | 1012.2 |
| 20260905192815 | 26 | 148 | 1.6 | 3.2 | 0.00 | 0.03 | 0.03 | 84 | 1012.1 |
| 20260905192311 | 26 | 148 | 1.6 | 3.2 | 0.00 | 0.03 | 0.03 | 83 | 1012.2 |
| 20260905191810 | 26 | 146 | 1.6 | 3.2 | 0.00 | 0.03 | 0.03 | 83 | 1011.9 |
| 20260905191308 | 26 | 149 | 1.6 | 8.0 | 0.00 | 0.03 | 0.03 | 83 | 1012.3 |
| 20260905190807 | 26 | 147 | 1.6 | 3.2 | 0.00 | 0.03 | 0.03 | 82 | 1012.1 |
| 20260905190301 | 27 | 148 | 1.6 | 4.8 | 0.00 | 0.03 | 0.03 | 82 | 1012.2 |
| 20260905185800 | 26 | 162 | 0.0 | 3.2 | 0.00 | 0.03 | 0.03 | 82 | 1012.3 |
| 20260905185254 | 27 | 162 | 3.2 | 8.0 | 0.00 | 0.03 | 0.03 | 81 | 1011.9 |
| 20260905184748 | 27 | 160 | 3.2 | 8.0 | 0.00 | 0.03 | 0.03 | 81 | 1012.2 |
| 20260905184247 | 27 | 161 | 4.8 | 4.8 | 0.00 | 0.03 | 0.03 | 79 | 1012.1 |
| 20260905183741 | 28 | 148 | 0.0 | 3.2 | 0.00 | 0.03 | 0.03 | 78 | 1012.2 |
| 20260905183237 | 27 | 149 | 3.2 | 4.8 | 0.00 | 0.03 | 0.03 | 79 | 1012.4 |
| 20260905182736 | 27 | 147 | 1.6 | 3.2 | 0.00 | 0.03 | 0.03 | 79 | 1012.3 |
| 20260905182236 | 28 | 149 | 1.6 | 4.8 | 0.00 | 0.03 | 0.03 | 78 | 1012.2 |
| 20260905181732 | 28 | 145 | 1.6 | 3.2 | 0.00 | 0.03 | 0.03 | 79 | 1012.3 |
| 20260905181231 | 28 | 149 | 3.2 | 11.3 | 0.00 | 0.03 | 0.03 | 78 | 1012.2 |
| 20260905180726 | 28 | 149 | 0.0 | 8.0 | 0.00 | 0.03 | 0.03 | 79 | 1012.1 |
| 20260905180220 | 27 | 145 | 4.8 | 8.0 | 0.00 | 0.03 | 0.03 | 79 | 1012.1 |
| 20260905175715 | 27 | 147 | 1.6 | 4.8 | 0.00 | 0.03 | 0.03 | 79 | 1012.1 |
| 20260905175209 | 28 | 143 | 6.4 | 8.0 | 0.00 | 0.03 | 0.03 | 78 | 1012.2 |
| 20260905174705 | 27 | 147 | 3.2 | 4.8 | 0.00 | 0.03 | 0.03 | 79 | 1011.9 |
| 20260905174201 | 27 | 149 | 4.8 | 8.0 | 0.00 | 0.03 | 0.03 | 81 | 1011.9 |
| 20260905173657 | 28 | 147 | 3.2 | 4.8 | 0.00 | 0.03 | 0.03 | 78 | 1011.9 |
| 20260905173152 | 29 | 147 | 3.2 | 4.8 | 0.00 | 0.03 | 0.03 | 77 | 1011.9 |
| 20260905172651 | 28 | 147 | 1.6 | 4.8 | 0.00 | 0.03 | 0.03 | 78 | 1011.8 |
| 20260905172145 | 28 | 149 | 3.2 | 9.7 | 0.00 | 0.03 | 0.03 | 77 | 1012.1 |
| 20260905171641 | 28 | 138 | 3.2 | 8.0 | 0.00 | 0.03 | 0.03 | 78 | 1011.8 |
| 20260905171137 | 28 | 147 | 0.0 | 4.8 | 0.00 | 0.03 | 0.03 | 79 | 1011.9 |
| 20260905170634 | 28 | 147 | 1.6 | 8.0 | 0.00 | 0.03 | 0.03 | 79 | 1011.8 |
| 20260905170129 | 29 | 147 | 4.8 | 8.0 | 0.00 | 0.03 | 0.03 | 76 | 1012.1 |
| 20260905165623 | 30 | 148 | 3.2 | 3.2 | 0.00 | 0.03 | 0.03 | 75 | 1012.1 |
| 20260905165119 | 29 | 148 | 1.6 | 3.2 | 0.00 | 0.03 | 0.03 | 77 | 1011.9 |
| 20260905164614 | 30 | 150 | 4.8 | 4.8 | 0.00 | 0.03 | 0.03 | 74 | 1012.2 |
| 20260905164113 | 28 | 149 | 1.6 | 3.2 | 0.00 | 0.03 | 0.03 | 77 | 1011.9 |
| 20260905163609 | 28 | 147 | 3.2 | 8.0 | 0.00 | 0.03 | 0.03 | 78 | 1012.2 |
| 20260905163106 | 28 | 168 | 1.6 | 8.0 | 0.00 | 0.03 | 0.03 | 79 | 1012.4 |
| 20260905162602 | 28 | 149 | 1.6 | 4.8 | 0.00 | 0.03 | 0.03 | 78 | 1012.4 |
| 20260905162101 | 28 | 150 | 3.2 | 8.0 | 0.00 | 0.03 | 0.03 | 79 | 1011.9 |
| 20260905161555 | 28 | 149 | 1.6 | 3.2 | 0.00 | 0.03 | 0.03 | 78 | 1012.2 |
| 20260905161053 | 27 | 149 | 1.6 | 3.2 | 0.00 | 0.03 | 0.03 | 81 | 1012.3 |
| 20260905160552 | 27 | 148 | 1.6 | 4.8 | 0.00 | 0.03 | 0.03 | 81 | 1012.3 |
| 20260905160052 | 27 | 147 | 1.6 | 3.2 | 0.00 | 0.03 | 0.03 | 82 | 1012.2 |
| 20260905155552 | 27 | 147 | 3.2 | 4.8 | 0.00 | 0.03 | 0.03 | 82 | 1012.2 |
| 20260905155050 | 27 | 147 | 4.8 | 4.8 | 0.00 | 0.03 | 0.03 | 82 | 1012.1 |
| 20260905154545 | 28 | 140 | 4.8 | 4.8 | 0.00 | 0.03 | 0.03 | 81 | 1012.2 |
| 20260905154041 | 27 | 148 | 1.6 | 3.2 | 0.00 | 0.03 | 0.03 | 83 | 1011.8 |
| 20260905153537 | 26 | 151 | 3.2 | 8.0 | 0.00 | 0.03 | 0.03 | 84 | 1012.2 |
| 20260905153037 | 27 | 151 | 1.6 | 8.0 | 0.00 | 0.03 | 0.03 | 83 | 1012.1 |
| 20260905152531 | 27 | 150 | 1.6 | 4.8 | 0.00 | 0.03 | 0.03 | 83 | 1011.8 |
| 20260905152027 | 27 | 150 | 1.6 | 4.8 | 0.00 | 0.03 | 0.03 | 83 | 1011.7 |
| 20260905151522 | 27 | 150 | 3.2 | 14.5 | 0.00 | 0.03 | 0.03 | 83 | 1011.8 |
| 20260905151017 | 27 | 149 | 3.2 | 4.8 | 0.00 | 0.03 | 0.03 | 83 | 1011.8 |
| 20260905150512 | 26 | 148 | 0.0 | 3.2 | 0.00 | 0.03 | 0.03 | 86 | 1011.5 |
| 20260905150010 | 26 | 149 | 3.2 | 4.8 | 0.00 | 0.03 | 0.03 | 87 | 1011.7 |
| 20260905145509 | 26 | 149 | 4.8 | 4.8 | 0.00 | 0.03 | 0.03 | 87 | 1011.4 |
| 20260905145003 | 26 | 152 | 8.0 | 12.9 | 0.00 | 0.03 | 0.03 | 86 | 1011.3 |
| 20260905144458 | 26 | 156 | 4.8 | 8.0 | 0.00 | 0.03 | 0.03 | 86 | 1011.6 |
| 20260905143957 | 25 | 148 | 1.6 | 11.3 | 0.00 | 0.03 | 0.03 | 88 | 1011.4 |
| 20260905143456 | 25 | 160 | 4.8 | 9.7 | 0.00 | 0.03 | 0.03 | 88 | 1011.5 |
| 20260905142951 | 25 | 148 | 1.6 | 4.8 | 0.00 | 0.03 | 0.03 | 89 | 1011.3 |
| 20260905142450 | 25 | 149 | 0.0 | 4.8 | 0.00 | 0.03 | 0.03 | 90 | 1011.5 |
| 20260905141945 | 25 | 150 | 3.2 | 3.2 | 0.00 | 0.03 | 0.03 | 91 | 1011.6 |
| 20260905141440 | 25 | 149 | 4.8 | 4.8 | 0.00 | 0.03 | 0.03 | 92 | 1011.4 |
| 20260905140936 | 23 | 149 | 1.6 | 4.8 | 0.00 | 0.03 | 0.03 | 95 | 1011.3 |
| 20260905140431 | 23 | 150 | 0.0 | 3.2 | 0.00 | 0.03 | 0.03 | 96 | 1011.5 |
| 20260905135930 | 23 | 109 | 3.2 | 4.8 | 0.00 | 0.03 | 0.03 | 97 | 1011.5 |
| 20260905135426 | 23 | 149 | 3.2 | 4.8 | 0.00 | 0.03 | 0.03 | 97 | 1011.3 |
| 20260905134921 | 23 | 148 | 1.6 | 4.8 | 0.00 | 0.03 | 0.03 | 97 | 1011.2 |
| 20260905134420 | 23 | 147 | 0.0 | 1.6 | 0.00 | 0.03 | 0.03 | 98 | 1011.4 |
| 20260905133915 | 23 | 136 | 1.6 | 4.8 | 0.00 | 0.03 | 0.03 | 98 | 1011.3 |
| 20260905133415 | 23 | 148 | 0.0 | 4.8 | 0.00 | 0.03 | 0.03 | 98 | 1011.1 |
| 20260905132914 | 23 | 147 | 1.6 | 3.2 | 0.00 | 0.03 | 0.03 | 98 | 1011.5 |
| 20260905132410 | 23 | 148 | 0.0 | 3.2 | 0.00 | 0.03 | 0.03 | 99 | 1011.3 |
| 20260905131905 | 23 | 149 | 3.2 | 4.8 | 0.00 | 0.03 | 0.03 | 99 | 1011.4 |
| 20260905131400 | 23 | 150 | 3.2 | 4.8 | 0.00 | 0.03 | 0.03 | 99 | 1011.6 |
| 20260905130855 | 23 | 149 | 3.2 | 4.8 | 0.00 | 0.03 | 0.03 | 99 | 1011.6 |